Torna al catalogo

COSMOS 1867 COOLANT

AttivoLEO
NORAD 39654·DEBRIS·🇷🇺 Russia

Lanciato Jul 10, 1987 da Baikonur Cosmodrome

Loading…

Prossimi Passaggi (prossime 24 ore)

TLE

AggiornatoSource: Space-Track

Epoca: Sep 14, 2026, 21:25 UTC

1 39654U 87060R   26257.89239947  .00000142  00000-0  87008-4 0  9995
2 39654  65.0053 121.4941 0019476 280.4036  79.4854 14.33708440649369

Traccia COSMOS 1867 COOLANT in tempo reale con AllMySat

Download on the App Store